Location: Altoona
(40.5167°N, 78.4000°W)
Time: 09:24:35
(UTC-05:00)

Daily predictions for brighter satellites

Satellite Brightness Start Highest point End
(mag) Time Altitude Azimuth Time Altitude Azimuth Time Altitude Azimuth
Okean 1 4.2 17:14:29 10° SSE 17:18:02 30° E 17:21:36 10° NNE
Cosmos 1844 3.7 17:13:49 10° SSW 17:19:23 89° ESE 17:24:59 10° NNE
Abrixas 4.0 17:18:21 10° NW 17:20:45 22° NNE 17:23:08 10° ENE
Cosmos 1536 4.1 17:16:56 10° NNW 17:20:52 47° W 17:24:46 10° SSW
OTV 4 3.7 17:24:38 10° SW 17:25:41 11° SSW 17:26:44 10° S
Cosmos 1346 Rocket 3.8 17:25:41 10° SSE 17:28:57 26° E 17:32:14 10° NE
ISS -1.3 17:29:45 10° WNW 17:32:16 20° NNW 17:34:49 10° NNE
Cosmos 1544 Rocket 3.6 17:29:19 10° N 17:33:48 87° E 17:38:16 10° S
PAYLOAD A 4.1 17:29:42 10° S 17:34:31 78° WSW 17:39:32 10° NNW
Cosmos 2278 Rocket 2.2 17:29:02 10° SSW 17:34:38 72° ESE 17:40:18 10° NNE
USA 116 4.4 17:30:36 10° NNE 17:36:01 79° ESE 17:41:08 10° S
Cosmos 1975 Rocket 4.5 17:33:40 10° SSW 17:37:42 39° WNW 17:41:47 10° N
COSMO-SKYMED 1 3.6 17:34:17 10° NE 17:37:57 26° E 17:41:34 10° SSE
SMAP 3.0 17:34:26 10° SSE 17:39:04 75° ENE 17:43:43 10° N
USA 234 3.4 17:35:23 10° NE 17:41:55 77° NW 17:48:26 10° SW
CZ-4 R/B 4.4 17:41:48 10° SSE 17:45:52 59° ENE 17:49:58 10° N
BREEZE M DEB (TANK) 3.8 17:45:01 10° NW 17:48:02 32° NNE 17:53:28 14° E
SL-8 R/B 3.9 17:44:00 10° WSW 17:48:44 65° NNW 17:52:28 16° NE
Genesis I 3.2 17:47:12 10° NNW 17:51:06 57° NE 17:54:55 10° SE
Cosmos 1536 Rocket 3.6 17:49:48 10° S 17:54:15 87° W 17:58:46 10° N
Nadezhda 3 Rocket 4.1 17:49:45 10° SSE 17:55:42 51° E 18:01:44 10° NNE
Cosmos 1833 Rocket 3.2 17:52:33 10° N 17:57:45 37° ENE 18:02:55 10° SE
Cosmos 1025 Rocket 4.2 17:55:05 10° SE 17:58:30 23° E 17:59:27 21° ENE
NOSS 3-3 (A) 4.1 17:52:49 10° SW 17:59:00 79° NW 18:05:35 11° NNE
NOSS 3-3 (C) 4.1 17:52:55 10° SW 17:59:06 79° NW 18:05:40 11° NNE
Cosmos 2082 Rocket 2.5 17:55:07 10° NNW 18:00:33 45° ENE 18:05:59 10° SE
Cosmos 921 Rocket 3.4 17:56:53 10° S 18:00:49 39° E 18:03:30 19° NE
EP 1 4.1 17:59:12 10° SSW 18:01:50 66° ESE 18:02:42 35° NE
YAOGAN 1 3.0 17:58:32 10° S 18:02:50 65° W 18:07:09 10° NNW
Cosmos 1238 Rocket 3.8 18:00:14 10° SSW 18:02:57 34° WNW 18:05:50 10° N
SPOT 3 Rocket 4.1 17:58:22 10° S 18:03:30 63° WSW 18:08:38 10° NNW
MSX 3.8 17:57:58 10° SSE 18:03:43 84° ENE 18:09:30 10° NNW
CZ-4 R/B 2.9 18:00:28 10° S 18:04:24 40° W 18:08:20 10° NNW
GRACE-2 4.3 18:02:49 10° SSE 18:05:27 39° E 18:05:48 37° ENE
Cosmos 1975 2.9 18:01:40 10° N 18:05:44 80° W 18:09:45 10° S
GRACE-1 4.2 18:03:13 10° SSE 18:05:52 41° E 18:06:18 37° ENE
Cosmos 1743 3.2 18:02:32 10° N 18:06:09 37° ENE 18:09:44 10° SSE
ATLAS 2AS CENTAUR R/B 3.8 18:00:17 10° NW 18:08:04 56° WSW 18:15:18 10° SSE
GEOS 3 Rocket 4.1 18:06:32 18° E 18:09:43 36° NE 18:14:21 10° NNW
COSMOS 2487 2.3 18:06:40 10° NNW 18:10:16 79° ENE 18:13:51 10° SSE
Cosmos 1500 3.2 18:07:02 10° N 18:10:53 86° W 18:14:44 10° S
Cosmos 1484 Rocket 2.5 18:07:33 10° SSE 18:11:17 66° ENE 18:14:58 10° N
CZ-2C R/B 3.4 18:07:13 10° S 18:12:04 51° W 18:17:04 10° NNW
MONITOR-E 4.2 18:10:02 10° S 18:13:13 83° WSW 18:16:26 10° NNW
Meteor 1-28 Rocket 3.7 18:15:53 34° ENE 18:16:31 37° E 18:20:03 10° SSE
COSMOS 2441 4.5 18:14:32 10° S 18:19:24 81° WSW 18:24:20 10° NNW
Tiangong 1 0.8 18:16:28 10° WSW 18:19:30 86° SSE 18:19:54 63° E
Meteor 1-13 Rocket 4.2 18:14:13 10° S 18:19:51 74° E 18:25:40 10° NNE
SKYMED 2 3.5 18:21:59 11° NNE 18:26:10 89° ESE 18:30:31 10° SSW
IDEFIX/ARIANE 42P 4.1 18:23:44 10° SSW 18:28:31 38° W 18:33:20 10° NNW
FALCON 9 R/B 3.9 18:04:11 10° WSW 18:30:48 63° S 18:35:31 26° ESE
BREEZE-M R/B 4.4 18:21:48 10° WSW 18:32:08 60° NNW 18:34:45 30° NE
Delta 2 Rocket 4.1 18:28:45 10° WSW 18:32:18 38° S 18:33:18 33° SE
Meteor 2-4 Rocket 3.6 18:30:58 10° S 18:36:13 57° E 18:38:55 28° NNE
Okean 1-7 Rocket 3.6 18:31:49 10° S 18:36:20 85° W 18:39:55 16° N
Meteor 2-9 Rocket 4.2 18:32:47 10° N 18:38:05 51° ENE 18:43:15 10° SSE
Cosmos 1934 Rocket 3.9 18:41:33 10° N 18:47:43 67° E 18:53:58 10° SSE
Cosmos 1535 Rocket 4.4 18:45:05 10° N 18:51:25 89° E 18:57:38 10° S
NOSS 2-1 (D) 3.6 18:49:16 10° SW 18:53:03 63° NW 18:53:30 58° NNW
NOSS 2-1 (C) 3.6 18:49:56 10° SW 18:53:45 65° NW 18:54:09 60° NNW
Meteor 2-8 Rocket 4.3 18:57:18 10° S 19:03:22 80° E 19:06:35 30° NNE
BREEZE M DEB (TANK) 3.1 19:02:55 10° WSW 19:08:45 49° NW 19:08:45 49° NW
NOSS 2-1 (E) 4.3 19:08:42 10° SW 19:12:13 45° WNW 19:12:13 45° WNW
Cosmos 1821 Rocket 4.4 19:10:45 10° NNW 19:16:43 58° W 19:22:39 10° S
Cosmos 1605 Rocket 3.9 19:21:02 10° N 19:27:21 87° W 19:33:33 10° S
CZ-3B DEB 4.1 19:23:24 10° WNW 19:28:44 36° N 19:31:38 31° NNE
Cosmos 2056 Rocket 4.0 19:27:26 10° SSW 19:32:40 57° WNW 19:32:40 57° WNW
Cosmos 1833 Rocket 4.3 19:36:39 10° NW 19:41:34 31° WSW 19:46:25 10° SSW
NOSS 3-4 (A) 3.9 19:37:03 10° NW 19:44:06 73° WSW 19:45:08 64° S
NOSS 3-4 (C) 3.9 19:37:09 10° NW 19:44:12 73° WSW 19:45:08 65° S
Cosmos 2082 Rocket 4.2 19:39:48 10° NW 19:44:20 25° WSW 19:48:52 10° SSW
